Weather History for Cairo, Egypt

Change the Weather History Date:

Monday, May 28, 2012

  Actual Average Record
Temperature  
Mean Temperature 86 °F -  
Max Temperature 99 °F 91 °F 100 °F (2003)
Min Temperature 72 °F 69 °F 64 °F (1999)
Cooling Degree Days 20    
Growing Degree Days 36 (Base 50)    
Moisture  
Dew Point 53 °F    
Average Humidity 35    
Maximum Humidity 61    
Minimum Humidity 10    
Precipitation  
Precipitation 0.00 in 0.00 in - ()
Sea Level Pressure  
Sea Level Pressure 29.78 in    
Wind  
Wind Speed 7 mph ()    
Max Wind Speed 15 mph    
Max Gust Speed -    
Visibility 3.9 miles    
Events      
Averages and records for this station are not official NWS values.
T = Trace of Precipitation, MM = Missing Value Source: Averaged Metar Reports

Daily Weather History Graph

Daily Weather History Graph

Search for Another Location

Airport:

Trip Planner

Search our weather history database for the weather conditions in past years. The results will help you decide how hot, cold, wet, or windy it might be!

Date:

Astronomy

May. 28, 2012 Rise Set
Actual Time 4:54 AM EET 6:49 PM EET
Civil Twilight 4:27 AM EET 7:16 PM EET
Nautical Twilight 3:55 AM EET 7:48 PM EET
Astronomical Twilight 3:20 AM EET 8:23 PM EET
Moon 11:23 AM EET (5/28) No Moon Set
Length of Visible Light 14h 48m
Length of Day
13h 54m
Waxing Crescent, 45% of the Moon is Illuminated
May 28
Waxing Crescent
May 28
First Quarter
Jun 4
Full
Jun 11
Last Quarter
Jun 19
New

Hourly Weather History & Observations

Time (EET) Temp. Heat Index Dew Point Humidity Pressure Visibility Wind Dir Wind Speed Gust Speed Precip Events Conditions
12:00 AM 73.4 °F - 59.0 °F 61% 29.86 in - NE 13.8 mph - N/A   Clear
12:30 AM 73.4 °F - 59.0 °F 61% 29.86 in - ENE 10.4 mph - N/A   Clear
1:00 AM 73.4 °F - 59.0 °F 61% 29.86 in - NE 10.4 mph - N/A   Clear
1:30 AM 73.4 °F - 57.2 °F 57% 29.83 in - NNE 9.2 mph - N/A   Clear
2:00 AM 73 °F - 58 °F 51% 29.83 in 6 mi ENE 10.4 mph - -   Partly Cloudy
2:00 AM 73.4 °F - 59.0 °F 61% 29.83 in - ENE 10.4 mph - N/A   Clear
2:30 AM 71.6 °F - 57.2 °F 60% 29.80 in - NE 12.7 mph - N/A   Clear
3:00 AM 71.6 °F - 57.2 °F 60% 29.80 in - NE 6.9 mph - N/A   Clear
3:30 AM 73.4 °F - 57.2 °F 57% 29.80 in - ENE 8.1 mph - N/A   Clear
4:00 AM 71.6 °F - 57.2 °F 60% 29.80 in - NE 6.9 mph - N/A   Clear
4:30 AM 71.6 °F - 55.4 °F 57% 29.80 in - NNE 3.5 mph - N/A   Clear
5:00 AM 71.6 °F - 55.4 °F 57% 29.77 in - North 4.6 mph - N/A   Clear
5:30 AM 71.6 °F - 55.4 °F 57% 29.80 in - NNE 5.8 mph - N/A   Clear
6:00 AM 71.6 °F - 55.4 °F 57% 29.80 in - NNE 2.3 mph - N/A   Clear
6:30 AM 73.4 °F - 55.4 °F 53% 29.80 in - ENE 3.5 mph - N/A   Clear
7:00 AM 77.0 °F - 55.4 °F 47% 29.83 in - SW 1.2 mph - N/A   Clear
7:30 AM 80.6 °F 80.5 °F 55.4 °F 42% 29.83 in 1.8 mi North - - N/A   Unknown
8:00 AM 84 °F - 56 °F 27% 29.82 in 6 mi NNW 1.2 mph - -   Clear
8:00 AM 84.2 °F 83.0 °F 55.4 °F 37% 29.83 in - NNW 1.2 mph - N/A   Clear
8:30 AM 84.2 °F 82.8 °F 53.6 °F 35% 29.83 in - NNE 3.5 mph - N/A   Clear
9:00 AM 86.0 °F 84.2 °F 53.6 °F 33% 29.83 in - North 3.5 mph - N/A   Clear
9:30 AM 89.6 °F 87.3 °F 53.6 °F 29% 29.83 in - NNW 3.5 mph - N/A   Clear
10:00 AM 91.4 °F - 51.8 °F 26% 29.83 in 3.7 mi NW 3.5 mph - N/A   Unknown
10:30 AM 93.2 °F 90.8 °F 53.6 °F 26% 29.83 in 3.7 mi WSW 2.3 mph - N/A   Unknown
11:00 AM 95.0 °F - 51.8 °F 23% 29.80 in 3.7 mi WSW 4.6 mph - N/A   Unknown
11:30 AM 96.8 °F - 48.2 °F 19% 29.80 in 3.7 mi SW 6.9 mph - N/A   Unknown
12:00 PM 96.8 °F - 48.2 °F 19% 29.80 in 3.7 mi WSW 10.4 mph - N/A   Unknown
12:30 PM 96.8 °F - 46.4 °F 18% 29.77 in 3.7 mi West 6.9 mph - N/A   Unknown
1:00 PM 98.6 °F - 46.4 °F 17% 29.77 in 3.7 mi West 9.2 mph - N/A   Unknown
1:30 PM 98.6 °F - 48.2 °F 18% 29.77 in 3.7 mi West 8.1 mph - N/A   Unknown
2:00 PM 99 °F - 48 °F 10% 29.79 in 4 mi NW 8.1 mph - -   Haze
2:00 PM 98.6 °F - 48.2 °F 18% 29.74 in 3.7 mi NW 8.1 mph - N/A   Unknown
2:30 PM 98.6 °F - 50.0 °F 19% 29.77 in 3.7 mi NW 10.4 mph - N/A   Unknown
3:00 PM 98.6 °F - 50.0 °F 19% 29.74 in 3.7 mi NNW 6.9 mph - N/A   Unknown
3:30 PM 98.6 °F - 51.8 °F 21% 29.74 in 3.7 mi NNW 6.9 mph - N/A   Unknown
4:00 PM 98.6 °F - 51.8 °F 21% 29.74 in 3.7 mi NW 6.9 mph - N/A   Unknown
4:30 PM 96.8 °F - 51.8 °F 22% 29.74 in 3.7 mi NNW 6.9 mph - N/A   Unknown
5:00 PM 98.6 °F - 51.8 °F 21% 29.74 in 3.7 mi North 8.1 mph - N/A   Unknown
5:30 PM 96.8 °F - 50.0 °F 20% 29.71 in 3.7 mi North 3.5 mph - N/A   Unknown
6:00 PM 96.8 °F - 50.0 °F 20% 29.71 in 3.7 mi North 5.8 mph - N/A   Unknown
6:30 PM 96.8 °F - 50.0 °F 20% 29.71 in 3.7 mi NNE 3.5 mph - N/A   Unknown
7:00 PM 95.0 °F - 50.0 °F 22% 29.71 in 3.7 mi NE 4.6 mph - N/A   Unknown
7:30 PM 95.0 °F - 50.0 °F 22% 29.71 in 3.7 mi NE 4.6 mph - N/A   Unknown
8:00 PM 93 °F - 54 °F 17% 29.73 in 6 mi 15.0 mph - -   Clear
8:00 PM 93.2 °F 90.8 °F 53.6 °F 26% 29.71 in - NE 15.0 mph - N/A   Clear
8:30 PM 93.2 °F 90.8 °F 53.6 °F 26% 29.71 in - NE 15.0 mph - N/A   Clear
9:00 PM 89.6 °F - 50.0 °F 26% 29.74 in - ENE 11.5 mph - N/A   Clear
9:30 PM 89.6 °F - 50.0 °F 26% 29.74 in - ENE 11.5 mph - N/A   Clear
10:00 PM 89.6 °F - 51.8 °F 27% 29.77 in - NE 9.2 mph - N/A   Clear
10:30 PM 89.6 °F - 51.8 °F 27% 29.77 in - NE 9.2 mph - N/A   Clear
11:00 PM 84.2 °F 83.0 °F 55.4 °F 37% 29.77 in - West 13.8 mph - N/A   Clear
11:30 PM 80.6 °F 81.8 °F 62.6 °F 54% 29.77 in - West 13.8 mph - N/A   Clear